Time,TemperatureF,DewpointF,PressureIn,WindDirection,WindDirectionDegrees,WindSpeedMPH,WindSpeedGustMPH,Humidity,HourlyPrecipIn,Conditions,Clouds,dailyrainin,SoftwareType,DateUTC
2013-06-30 22:00:00,69.4,60.0,29.88,East,90,0.0,4.0,72,0.00,,SCT110,0.14,VWS V14.00,2013-07-01 02:00:00,
2013-06-30 22:17:00,68.8,60.2,29.88,East,94,0.0,0.0,74,0.24,,SCT110,0.14,VWS V14.00,2013-07-01 02:17:00,
2013-06-30 22:18:00,68.8,60.2,29.88,East,94,0.0,0.0,74,0.24,,SCT110,0.14,VWS V14.00,2013-07-01 02:18:00,
2013-06-30 22:19:00,68.8,60.2,29.88,East,94,0.0,0.0,74,0.24,,SCT110,0.14,VWS V14.00,2013-07-01 02:19:00,
2013-06-30 22:24:00,68.7,60.5,29.89,ESE,105,0.0,3.0,75,0.24,,SCT110,0.14,VWS V14.00,2013-07-01 02:24:00,
2013-06-30 22:29:00,68.6,60.4,29.89,ESE,105,0.0,0.0,75,0.24,,SCT110,0.14,VWS V14.00,2013-07-01 02:29:00,
2013-06-30 22:34:00,68.5,60.6,29.89,ESE,105,0.0,1.0,76,0.24,,CLR,0.14,VWS V14.00,2013-07-01 02:34:00,
2013-06-30 22:39:00,68.3,60.5,29.89,ESE,105,0.0,0.0,76,0.24,,CLR,0.14,VWS V14.00,2013-07-01 02:39:00,
2013-06-30 22:44:00,68.2,60.7,29.89,ESE,105,0.0,2.0,77,0.24,,CLR,0.14,VWS V14.00,2013-07-01 02:44:00,
2013-06-30 22:49:00,68.0,60.5,29.89,ESE,105,0.0,0.0,77,0.24,,CLR,0.14,VWS V14.00,2013-07-01 02:49:00,
2013-06-30 22:54:00,67.8,60.3,29.89,ESE,105,0.0,0.0,77,0.24,,CLR,0.14,VWS V14.00,2013-07-01 02:54:00,
2013-06-30 22:59:00,67.6,60.1,29.88,ESE,105,0.0,0.0,77,0.24,,CLR,0.14,VWS V14.00,2013-07-01 02:59:00,
2013-06-30 23:04:00,67.4,60.3,29.88,ESE,105,0.0,0.0,78,0.24,,FEW055,0.14,VWS V14.00,2013-07-01 03:04:00,
2013-06-30 23:09:00,67.1,60.0,29.89,ESE,105,0.0,0.0,78,0.00,,FEW055,0.14,VWS V14.00,2013-07-01 03:09:00,
2013-06-30 23:14:00,66.8,60.1,29.89,ESE,105,0.0,0.0,79,0.00,,FEW055,0.14,VWS V14.00,2013-07-01 03:14:00,
2013-06-30 23:19:00,66.6,60.2,29.89,ESE,105,0.0,0.0,80,0.00,,FEW055,0.14,VWS V14.00,2013-07-01 03:19:00,
2013-06-30 23:24:00,66.3,60.3,29.89,ESE,105,0.0,0.0,81,0.00,,FEW055,0.14,VWS V14.00,2013-07-01 03:24:00,
2013-06-30 23:29:00,66.0,60.0,29.89,ESE,105,0.0,0.0,81,0.00,,FEW055,0.14,VWS V14.00,2013-07-01 03:29:00,
2013-06-30 23:34:00,65.7,60.1,29.89,ESE,105,0.0,0.0,82,0.00,,FEW055,0.14,VWS V14.00,2013-07-01 03:34:00,
2013-06-30 23:39:00,65.4,59.8,29.89,ESE,105,0.0,2.0,82,0.00,,FEW055,0.14,VWS V14.00,2013-07-01 03:39:00,
2013-06-30 23:44:00,65.3,59.7,29.89,ESE,105,0.0,2.0,82,0.00,,FEW055,0.14,VWS V14.00,2013-07-01 03:44:00,
2013-06-30 23:49:00,65.2,59.6,29.89,ESE,105,0.0,0.0,82,0.00,,FEW055,0.14,VWS V14.00,2013-07-01 03:49:00,
2013-06-30 23:54:00,65.0,59.4,29.89,ESE,105,0.0,1.0,82,0.00,,FEW055,0.14,VWS V14.00,2013-07-01 03:54:00,
2013-06-30 23:59:00,64.9,59.3,29.89,ESE,105,0.0,1.0,82,0.00,,SCT046,0.00,VWS V14.00,2013-07-01 03:59:00,